Location: Ripley
(48.3812°N, 115.4473°W)
Time: 04:47:08
(UTC+00:00)

BEESAT - Visible Passes

Search period start: 26 June 2022 00:00
Search period end: 06 July 2022 00:00
Orbit: 698 x 708 km, 98.6° (Epoch: 25 June)

Date Brightness Start Highest point End Pass type
(mag) Time Alt. Az. Time Alt. Az. Time Alt. Az.
26 Jun ? 05:05:48 10° N 05:10:08 35° WNW 05:14:27 10° SW visible
27 Jun ? 05:49:41 10° NNW 05:52:41 17° WNW 05:55:40 10° W visible
28 Jun ? 04:53:52 10° N 04:58:25 45° WNW 05:02:56 10° SW visible
29 Jun ? 05:37:31 10° NNW 05:41:01 21° WNW 05:44:31 10° WSW visible
30 Jun ? 04:41:58 10° N 04:46:39 57° WNW 04:51:19 10° SSW visible
01 Jul ? 05:25:27 10° N 05:29:21 26° WNW 05:33:14 10° WSW visible
02 Jul ? 04:30:06 10° N 04:34:53 74° WNW 04:39:38 10° SSW visible
02 Jul ? 06:09:56 10° NNW 06:11:47 12° NW 06:13:37 10° WNW visible
03 Jul ? 05:13:26 10° N 05:17:38 32° WNW 05:21:50 10° SW visible
04 Jul ? 04:18:17 10° NNE 04:23:05 87° ESE 04:27:52 10° SSW visible
04 Jul ? 05:57:28 10° NNW 06:00:09 15° NW 06:02:49 10° W visible
05 Jul ? 05:01:28 10° N 05:05:55 40° WNW 05:10:21 10° SW visible
